[Iaude] MPEC V81: 2016 VX2 [a=1.42,e=0.28,i=10.5,H=25.7]

mpec at si.edu mpec at si.edu
Tue Nov 8 23:59:55 EST 2016


M.P.E.C. 2016-V81                                Issued 2016 Nov.  9, 04:56 UT
 
     The Minor Planet Electronic Circulars contain information on unusual
         minor planets and routine data on comets.  They are published
    on behalf of Division F of the International Astronomical Union by the
          Minor Planet Center, Smithsonian Astrophysical Observatory,
                          Cambridge, MA 02138, U.S.A.

             Prepared using the Tamkin Foundation Computer Network

                              MPC at CFA.HARVARD.EDU
            URL http://www.minorplanetcenter.net/    ISSN 1523-6714


                                   2016 VX2
 
Observations:
     K16V02X* C2016 11 07.33733 02 02 27.92 +05 13 07.5          19.2 VqEV081703
     K16V02X  C2016 11 07.34333 02 02 35.25 +05 11 18.5          19.5 VqEV081703
     K16V02X  C2016 11 07.35536 02 02 50.11 +05 07 38.2          18.8 VqEV081703
     K16V02X  C2016 11 07.35938 02 02 54.86 +05 06 30.2          19.0 VqEV081703
     K16V02X  C2016 11 07.36593 02 03 02.92 +05 04 27.9          18.4 VqEV081703
     K16V02X  C2016 11 07.37903 02 03 19.28 +05 00 29.7          18.1 VqEV081703
     K16V02X KC2016 11 07.83516 02 13 23.88 +02 45 12.2          18.9 RqEV081587
     K16V02X KC2016 11 07.83875 02 13 28.14 +02 44 09.8                qEV081587
     K16V02X KC2016 11 07.84232 02 13 32.43 +02 43 07.7                qEV081587
     K16V02X EC2016 11 07.95942 02 15 52.37 +02 09 01.4                qEV081J95
     K16V02X KC2016 11 07.96256 02 15 56.03 +02 08 06.5                qEV081J95
     K16V02X KC2016 11 07.96987 02 16 04.66 +02 06 00.9          19.0 RqEV081J95
     K16V02X  C2016 11 08.23727 02 21 38.27 +00 51 17.2          18.7 RoEV081926
     K16V02X  C2016 11 08.23850 02 21 39.65 +00 50 56.7          18.7 RoEV081926
     K16V02X  C2016 11 08.23972 02 21 41.04 +00 50 35.8          19.0 RoEV081926
     K16V02X KC2016 11 08.96738 02 35 54.31 -02 27 41.3                qEV081203
     K16V02X KC2016 11 08.98736 02 36 15.48 -02 32 54.3          19.2 RqEV081203
 
Observer details:
203 GiaGa Observatory.  Observers S. Foglia, G. Galli.  Measurer G. Galli.
    0.28-m f/6.8 Schmidt-Cassegrain + CCD.
587 Sormano.  Observers A. Fumagalli, A. Testa.  Measurer A. Testa.  0.5-m
    f/6.8 reflector + CCD.
703 Catalina Sky Survey.  Observer D. C. Fuls.  Measurers E. J. Christensen,
    D. C. Fuls, A. R. Gibbs, A. D. Grauer, J. A. Johnson, R. A. Kowalski,
    S. M. Larson, G. J. Leonard, R. G. Matheny, R. L. Seaman, F. C. Shelly.
    0.68-m Schmidt + CCD.
926 Tenagra II Observatory.  Observers M. Schwartz, P. R. Holvorcem.  Measurer
    M. Schwartz.  0.81-m f/7 Ritchey-Chretien + CCD.
J95 Great Shefford.  Observer P. Birtwhistle.  0.40-m f/6.0 Schmidt-Cassegrain
    + CCD.
 
Orbital elements:
2016 VX2                                                 Earth MOID = 0.0265 AU
Epoch 2016 July 31.0 TT = JDT 2457600.5                 MPC
M 305.91871              (2000.0)            P               Q
n   0.58502806     Peri.  173.57707     +0.79498575     -0.59352971
a   1.4158533      Node   223.64752     +0.54817489     +0.79139141
e   0.2811340      Incl.   10.46601     +0.25981136     +0.14636295
P   1.68           H   25.7           G   0.15           U   7
Residuals in seconds of arc
161107 703 (2.3-  4.0+)   161107 587  0.4+  0.1-    161108 926  0.2+  0.2-
161107 703 (2.1-  3.3+)   161107 587  0.1+  0.2-    161108 926  0.3+  0.0
161107 703  0.3+  0.1-    161107 587  0.7+  0.2-    161108 926  0.6+  0.3-
161107 703 (2.2-  4.4+)   161107 J95  0.2+  0.4+    161108 203  0.5+  0.3+
161107 703 (1.7-  0.2+)   161107 J95  0.2-  0.4-    161108 203  0.2+  0.2-
161107 703 (2.4+  1.8-)   161107 J95  0.6+  0.0

Ephemeris:
2016 VX2                 a,e,i = 1.42, 0.28, 10                  q = 1.0178
Date    TT    R. A. (2000) Decl.     Delta      r     Elong.  Phase     V
2016 10 10    20 15 08.5 +43 24 48   0.1062  1.0359   107.8    66.6    23.3
...
2016 10 25    21 35 35.2 +41 57 48   0.05449 1.0195   116.0    61.2    21.6
...
2016 11 02    23 53 53.2 +29 49 27   0.03261 1.0179   141.2    37.6    19.8
...
2016 11 08    02 16 41.4 +02 01 13   0.03063 1.0200   162.9    16.6    19.1
2016 11 09    02 36 32.0 -02 32 37   0.03209 1.0207   159.9    19.4    19.3
2016 11 10    02 54 33.8 -06 37 40   0.03396 1.0214   156.2    23.1    19.5
...
2016 11 16    04 09 25.8 -21 34 45   0.05075 1.0273   138.3    39.8    20.9
...
2016 11 24    04 55 56.9 -28 10 24   0.07927 1.0394   129.4    47.2    22.1
...
2016 12 09    05 27 05.6 -29 33 59   0.1373  1.0737   127.3    46.8    23.3

A. U. Tomatic                (C) Copyright 2016 MPC           M.P.E.C. 2016-V81




More information about the Iaude mailing list